When you browse on this site, cookies collect data to enhance your experience and personalize the content and advertising you see.
Visit our Privacy Policy to learn more. By continuing to use the site, you agree to this use of cookies and data.
  • In Hungary
  • List of Countries
  • For 7 days
  • Water Temperature
  • Weather Map
  • News
  • Weather Widgets
  • user-avatar
    Login

    Hourly Weather Nevado San Francisco

    Today, 16 December, Monday

    Time Temperature Precipitation Wind Pressure Humidity
    00:00 +2°C° 0 mm 3 mps 427 mmHg 31%
    01:00 0°C° 0 mm 4 mps 426 mmHg 33%
    02:00 0°C° 0 mm 3 mps 426 mmHg 33%
    03:00 0°C° 0 mm 3 mps 425 mmHg 32%
    04:00 -1°C° 0 mm 3 mps 424 mmHg 32%
    05:00 -1°C° 0 mm 4 mps 425 mmHg 27%
    06:00 0°C° 0 mm 4 mps 426 mmHg 23%
    07:00 0°C° 0 mm 4 mps 427 mmHg 18%
    08:00 +2°C° 0 mm 5 mps 428 mmHg 17%
    09:00 +5°C° 0 mm 5 mps 429 mmHg 16%
    10:00 +5°C° 0 mm 6 mps 429 mmHg 14%
    11:00 +6°C° 0 mm 7 mps 430 mmHg 15%
    12:00 +7°C° 0 mm 8 mps 430 mmHg 16%
    13:00 +8°C° 0 mm 9 mps 430 mmHg 16%
    14:00 +7°C° 0 mm 9 mps 430 mmHg 17%
    15:00 +7°C° 0 mm 9 mps 429 mmHg 18%
    16:00 +7°C° 0 mm 9 mps 429 mmHg 19%
    17:00 +5°C° 0 mm 7 mps 429 mmHg 23%
    18:00 +4°C° 0 mm 6 mps 428 mmHg 27%
    19:00 +4°C° 0 mm 4 mps 428 mmHg 31%
    20:00 +3°C° 0 mm 4 mps 427 mmHg 34%
    21:00 +2°C° 0 mm 3 mps 427 mmHg 36%
    22:00 +2°C° 0 mm 3 mps 427 mmHg 38%
    23:00 +1°C° 0 mm 3 mps 426 mmHg 39%

    Tomorrow, 17 December, Tuesday

    Time Temperature Precipitation Wind Pressure Humidity
    00:00 +1°C° 0 mm 3 mps 426 mmHg 39%
    01:00 0°C° 0 mm 3 mps 425 mmHg 39%
    02:00 +1°C° 0 mm 2 mps 425 mmHg 40%
    03:00 -1°C° 0 mm 2 mps 425 mmHg 41%
    04:00 -1°C° 0 mm 2 mps 424 mmHg 42%
    05:00 +1°C° 0 mm 2 mps 425 mmHg 36%
    06:00 +2°C° 0 mm 2 mps 426 mmHg 30%
    07:00 +3°C° 0 mm 2 mps 427 mmHg 23%
    08:00 +5°C° 0 mm 2 mps 428 mmHg 21%
    09:00 +5°C° 0 mm 3 mps 429 mmHg 18%
    10:00 +8°C° 0 mm 3 mps 430 mmHg 16%
    11:00 +8°C° 0 mm 4 mps 430 mmHg 17%
    12:00 +8°C° 0 mm 4 mps 430 mmHg 17%
    13:00 +9°C° 0 mm 5 mps 430 mmHg 18%
    14:00 +9°C° 0 mm 5 mps 430 mmHg 21%
    15:00 +9°C° 0 mm 5 mps 430 mmHg 24%
    16:00 +8°C° 0 mm 5 mps 430 mmHg 27%
    17:00 +7°C° 0.1 mm 4 mps 429 mmHg 31%
    18:00 +7°C° 0.1 mm 3 mps 429 mmHg 36%
    19:00 +6°C° 0.1 mm 2 mps 428 mmHg 41%
    20:00 +5°C° 0 mm 2 mps 428 mmHg 42%
    21:00 +5°C° 0 mm 2 mps 428 mmHg 43%
    22:00 +5°C° 0 mm 1 mps 428 mmHg 45%
    23:00 +5°C° 0 mm 1 mps 427 mmHg 44%

    Day after tomorrow, 18 December, Wednesday

    Time Temperature Precipitation Wind Pressure Humidity
    00:00 +4°C° 0 mm 1 mps 427 mmHg 43%
    01:00 +4°C° 0 mm 1 mps 426 mmHg 43%
    02:00 +3°C° 0 mm 1 mps 426 mmHg 42%
    03:00 +2°C° 0 mm 2 mps 426 mmHg 41%
    04:00 +1°C° 0 mm 2 mps 425 mmHg 40%
    05:00 +2°C° 0 mm 2 mps 426 mmHg 34%
    06:00 +3°C° 0 mm 2 mps 427 mmHg 28%
    07:00 +4°C° 0 mm 2 mps 427 mmHg 22%
    08:00 +5°C° 0 mm 2 mps 428 mmHg 19%
    09:00 +7°C° 0 mm 2 mps 429 mmHg 16%
    10:00 +8°C° 0 mm 2 mps 430 mmHg 13%
    11:00 +9°C° 0 mm 3 mps 430 mmHg 13%
    12:00 +10°C° 0 mm 3 mps 431 mmHg 13%
    13:00 +11°C° 0 mm 4 mps 431 mmHg 13%
    14:00 +11°C° 0.1 mm 4 mps 431 mmHg 17%
    15:00 +10°C° 0.1 mm 4 mps 430 mmHg 21%
    16:00 +9°C° 0.1 mm 5 mps 430 mmHg 25%
    17:00 +8°C° 0.2 mm 4 mps 430 mmHg 30%
    18:00 +6°C° 0.2 mm 4 mps 429 mmHg 34%
    19:00 +5°C° 0.2 mm 3 mps 429 mmHg 39%
    20:00 +6°C° 0 mm 2 mps 429 mmHg 38%
    21:00 +5°C° 0 mm 2 mps 429 mmHg 37%
    22:00 +5°C° 0 mm 2 mps 429 mmHg 37%
    23:00 +4°C° 0 mm 2 mps 428 mmHg 37%

    19 December, Thursday

    Time Temperature Precipitation Wind Pressure Humidity
    00:00 +5°C° 0 mm 1 mps 428 mmHg 37%
    01:00 +4°C° 0 mm 1 mps 427 mmHg 37%
    02:00 +3°C° 0 mm 2 mps 427 mmHg 36%
    03:00 +2°C° 0 mm 2 mps 426 mmHg 36%
    04:00 +2°C° 0 mm 2 mps 426 mmHg 35%
    05:00 +2°C° 0 mm 2 mps 427 mmHg 28%
    06:00 +3°C° 0 mm 2 mps 428 mmHg 22%
    07:00 +4°C° 0 mm 2 mps 428 mmHg 15%
    08:00 +6°C° 0 mm 2 mps 429 mmHg 12%
    09:00 +7°C° 0 mm 2 mps 430 mmHg 10%
    10:00 +9°C° 0 mm 2 mps 431 mmHg 7%
    11:00 +10°C° 0 mm 3 mps 431 mmHg 7%
    12:00 +11°C° 0 mm 4 mps 432 mmHg 8%
    13:00 +12°C° 0 mm 4 mps 432 mmHg 8%
    14:00 +11°C° 0 mm 4 mps 432 mmHg 12%
    15:00 +10°C° 0 mm 5 mps 432 mmHg 17%
    16:00 +10°C° 0 mm 5 mps 431 mmHg 21%
    17:00 +10°C° 0.1 mm 4 mps 431 mmHg 26%
    18:00 +7°C° 0.1 mm 4 mps 430 mmHg 31%
    19:00 +7°C° 0.1 mm 3 mps 430 mmHg 37%
    20:00 +7°C° 0 mm 3 mps 430 mmHg 37%
    21:00 +6°C° 0 mm 2 mps 430 mmHg 38%
    22:00 +5°C° 0 mm 2 mps 429 mmHg 38%
    23:00 +5°C° 0 mm 2 mps 429 mmHg 38%

    20 December, Friday

    Time Temperature Precipitation Wind Pressure Humidity
    00:00 +4°C° 0 mm 2 mps 428 mmHg 38%
    01:00 +4°C° 0 mm 2 mps 427 mmHg 37%
    02:00 +3°C° 0 mm 2 mps 427 mmHg 38%
    03:00 +1°C° 0 mm 3 mps 426 mmHg 38%
    04:00 +1°C° 0 mm 3 mps 426 mmHg 38%
    05:00 +3°C° 0 mm 2 mps 427 mmHg 30%
    06:00 +3°C° 0 mm 2 mps 428 mmHg 23%
    07:00 +4°C° 0 mm 2 mps 428 mmHg 15%
    08:00 +6°C° 0 mm 2 mps 429 mmHg 14%
    09:00 +7°C° 0 mm 3 mps 430 mmHg 12%
    10:00 +9°C° 0 mm 3 mps 431 mmHg 11%
    11:00 +10°C° 0 mm 4 mps 431 mmHg 11%
    12:00 +10°C° 0 mm 5 mps 432 mmHg 11%
    13:00 +10°C° 0 mm 6 mps 432 mmHg 12%
    14:00 +10°C° 0.1 mm 6 mps 432 mmHg 15%
    15:00 +9°C° 0.1 mm 5 mps 431 mmHg 18%
    16:00 +9°C° 0.1 mm 5 mps 430 mmHg 21%
    17:00 +8°C° 0.1 mm 4 mps 430 mmHg 26%
    18:00 +7°C° 0.1 mm 4 mps 430 mmHg 30%
    19:00 +5°C° 0.1 mm 3 mps 429 mmHg 35%
    20:00 +5°C° 0.1 mm 3 mps 429 mmHg 41%
    21:00 +5°C° 0.1 mm 2 mps 428 mmHg 47%
    22:00 +4°C° 0.1 mm 2 mps 428 mmHg 54%
    23:00 +3°C° 0 mm 2 mps 427 mmHg 53%

    21 December, Saturday

    Time Temperature Precipitation Wind Pressure Humidity
    00:00 +3°C° 0 mm 2 mps 427 mmHg 51%
    01:00 +2°C° 0 mm 2 mps 426 mmHg 50%
    02:00 +2°C° 0 mm 2 mps 426 mmHg 50%
    03:00 +1°C° 0 mm 2 mps 426 mmHg 50%
    04:00 +1°C° 0 mm 2 mps 425 mmHg 50%
    05:00 +1°C° 0 mm 2 mps 426 mmHg 43%
    06:00 +2°C° 0 mm 2 mps 426 mmHg 36%
    07:00 +2°C° 0 mm 3 mps 427 mmHg 29%
    08:00 +3°C° 0 mm 3 mps 428 mmHg 26%
    09:00 +4°C° 0 mm 4 mps 429 mmHg 22%
    10:00 +6°C° 0 mm 5 mps 429 mmHg 18%
    11:00 +5°C° 0 mm 6 mps 430 mmHg 19%
    12:00 +6°C° 0 mm 7 mps 430 mmHg 20%
    13:00 +7°C° 0 mm 8 mps 430 mmHg 20%
    14:00 +6°C° 0 mm 7 mps 430 mmHg 23%
    15:00 +6°C° 0 mm 7 mps 429 mmHg 25%
    16:00 +5°C° 0 mm 6 mps 428 mmHg 28%
    17:00 +5°C° 0 mm 5 mps 428 mmHg 31%
    18:00 +4°C° 0 mm 4 mps 428 mmHg 34%
    19:00 +2°C° 0 mm 3 mps 427 mmHg 37%
    20:00 +2°C° 0 mm 3 mps 427 mmHg 39%
    21:00 +2°C° 0 mm 2 mps 427 mmHg 41%
    22:00 +2°C° 0 mm 2 mps 427 mmHg 42%
    23:00 +1°C° 0 mm 2 mps 426 mmHg 42%
    Show more